Santorini Island, Greece

2:25 PM EEST on September 22, 2018 (GMT +0300)
Santorini

Weather History for LGSR - July, 2018

Change the Weather History Date:

Thursday, July 12, 2018

  Actual Average Record
Temperature  
Mean Temperature 82 °F -  
Max Temperature 87 °F 84 °F 96 °F (2000)
Min Temperature 77 °F 72 °F 68 °F (2006)
Cooling Degree Days 17    
Growing Degree Days 32 (Base 50)    
Moisture  
Dew Point 63 °F    
Average Humidity 53    
Maximum Humidity 74    
Minimum Humidity 38    
Precipitation  
Precipitation 0.00 in - - ()
Sea Level Pressure  
Sea Level Pressure 29.84 in    
Wind  
Wind Speed 14 mph ()    
Max Wind Speed 24 mph    
Max Gust Speed -    
Visibility 6.2 miles    
Events      
Averages and records for this station are not official NWS values.
T = Trace of Precipitation, MM = Missing Value Source: Averaged Metar Reports

Daily Weather History Graph

Daily Weather History Graph

Search for Another Location

Airport or City:

Astronomy

Jul. 12, 2018 Rise Set
Actual Time 6:09 AM EEST 8:37 PM EEST
Civil Twilight 5:39 AM EEST 9:07 PM EEST
Nautical Twilight 5:02 AM EEST 9:44 PM EEST
Astronomical Twilight 4:22 AM EEST 10:24 PM EEST
Moon 5:16 AM EEST (7/12) 8:01 PM EEST (7/12)
Length of Visible Light 15h 27m
Length of Day
14h 27m
Waning Crescent, 1% of the Moon is Illuminated
Jul 12
Waning Crescent
Jul 13
New
Jul 19
First Quarter
Jul 27
Full
Aug 4
Last Quarter

Hourly Weather History & Observations

Time (EEST) Temp. Heat Index Dew Point Humidity Pressure Visibility Wind Dir Wind Speed Gust Speed Precip Events Conditions
12:20 AM 77.0 °F - 66.2 °F 69% 29.86 in - WNW 11.5 mph - N/A   Clear
12:50 AM 77.0 °F - 68.0 °F 74% 29.86 in - WNW 13.8 mph - N/A   Clear
1:20 AM 77.0 °F - 68.0 °F 74% 29.86 in - WNW 13.8 mph - N/A   Clear
1:50 AM 77.0 °F - 66.2 °F 69% 29.86 in - WNW 11.5 mph - N/A   Clear
2:20 AM 78.8 °F - 68.0 °F 69% 29.86 in - WNW 12.7 mph - N/A   Clear
2:50 AM 77.0 °F - 64.4 °F 65% 29.86 in - NW 12.7 mph - N/A   Clear
3:20 AM 77.0 °F - 64.4 °F 65% 29.83 in - NW 11.5 mph - N/A   Clear
3:50 AM 77.0 °F - 64.4 °F 65% 29.83 in - NW 9.2 mph - N/A   Clear
4:20 AM 77.0 °F - 66.2 °F 69% 29.83 in - NW 6.9 mph - N/A   Clear
4:50 AM 77.0 °F - 62.6 °F 61% 29.83 in - NW 12.7 mph - N/A   Clear
5:20 AM 78.8 °F - 62.6 °F 57% 29.83 in - NW 12.7 mph - N/A   Clear
5:50 AM 78.8 °F - 60.8 °F 54% 29.83 in - NW 13.8 mph - N/A   Clear
6:20 AM 78.8 °F - 60.8 °F 54% 29.83 in - NW 12.7 mph - N/A   Clear
6:50 AM 78.8 °F - 59.0 °F 51% 29.83 in - NW 15.0 mph - N/A   Clear
7:20 AM 78.8 °F - 60.8 °F 54% 29.83 in - NW 12.7 mph - N/A   Clear
7:50 AM 80.6 °F 81.1 °F 59.0 °F 48% 29.83 in - NW 13.8 mph - N/A   Clear
8:20 AM 82.4 °F 82.0 °F 57.2 °F 42% 29.83 in - NW 16.1 mph - N/A   Clear
8:50 AM 82.4 °F 82.5 °F 59.0 °F 45% 29.83 in - NNW 13.8 mph - N/A   Clear
9:20 AM 84.2 °F 85.0 °F 62.6 °F 48% 29.86 in - NW 16.1 mph - N/A   Clear
9:50 AM 84.2 °F 85.6 °F 64.4 °F 51% 29.86 in - NNW 17.3 mph - N/A   Clear
10:20 AM 82.4 °F 84.6 °F 66.2 °F 58% 29.86 in - NNW 17.3 mph - N/A   Clear
10:50 AM 84.2 °F 86.6 °F 66.2 °F 55% 29.86 in - NNW 19.6 mph - N/A   Clear
11:20 AM 84.2 °F 85.6 °F 64.4 °F 51% 29.86 in - NNW 19.6 mph - N/A   Clear
11:50 AM 84.2 °F 86.6 °F 66.2 °F 55% 29.86 in - NNW 21.9 mph - N/A   Clear
12:20 PM 86.0 °F 88.2 °F 66.2 °F 51% 29.86 in 6.2 mi NNW 23.0 mph - N/A   Partly Cloudy
12:50 PM 86.0 °F 88.2 °F 66.2 °F 51% 29.86 in 6.2 mi NNW 21.9 mph - N/A   Partly Cloudy
1:20 PM 86.0 °F 88.2 °F 66.2 °F 51% 29.86 in 6.2 mi NNW 21.9 mph - N/A   Partly Cloudy
1:50 PM 86.0 °F 88.2 °F 66.2 °F 51% 29.86 in 6.2 mi NNW 20.7 mph - N/A   Partly Cloudy
2:20 PM 86.0 °F 86.6 °F 62.6 °F 45% 29.86 in 6.2 mi NNW 23.0 mph - N/A   Partly Cloudy
2:50 PM 87.8 °F 88.5 °F 62.6 °F 43% 29.83 in 6.2 mi NNW 20.7 mph - N/A   Partly Cloudy
3:20 PM 87.8 °F 87.6 °F 60.8 °F 40% 29.83 in 6.2 mi NNW 21.9 mph - N/A   Partly Cloudy
3:50 PM 86.0 °F 86.6 °F 62.6 °F 45% 29.83 in 6.2 mi NNW 21.9 mph - N/A   Partly Cloudy
4:20 PM 86.0 °F 86.1 °F 60.8 °F 43% 29.83 in 6.2 mi NNW 23.0 mph - N/A   Partly Cloudy
4:50 PM 86.0 °F 86.1 °F 60.8 °F 43% 29.83 in 6.2 mi NNW 23.0 mph - N/A   Partly Cloudy
5:20 PM 87.8 °F 87.1 °F 59.0 °F 38% 29.83 in 6.2 mi NNW 21.9 mph - N/A   Partly Cloudy
5:50 PM 86.0 °F 85.4 °F 59.0 °F 40% 29.80 in 6.2 mi NNW 24.2 mph - N/A   Partly Cloudy
6:20 PM 86.0 °F 85.4 °F 59.0 °F 40% 29.80 in - NNW 23.0 mph - N/A   Clear
6:50 PM 84.2 °F 84.4 °F 60.8 °F 45% 29.80 in - NNW 21.9 mph - N/A   Clear
7:20 PM 84.2 °F 84.4 °F 60.8 °F 45% 29.80 in - NNW 21.9 mph - N/A   Clear
7:50 PM 82.4 °F 82.9 °F 60.8 °F 48% 29.83 in - NNW 20.7 mph - N/A   Clear
8:20 PM 82.4 °F 82.9 °F 60.8 °F 48% 29.83 in - NNW 19.6 mph - N/A   Clear
8:50 PM 82.4 °F 82.9 °F 60.8 °F 48% 29.83 in - NW 18.4 mph - N/A   Clear
9:20 PM 82.4 °F 83.4 °F 62.6 °F 51% 29.83 in - NNW 18.4 mph - N/A   Clear
9:50 PM 80.6 °F 81.8 °F 62.6 °F 54% 29.83 in - NNW 20.7 mph - N/A   Clear
10:20 PM 80.6 °F 81.8 °F 62.6 °F 54% 29.83 in - NNW 18.4 mph - N/A   Clear
10:50 PM 80.6 °F 81.5 °F 60.8 °F 51% 29.83 in - NW 13.8 mph - N/A   Clear
11:20 PM 80.6 °F 81.5 °F 60.8 °F 51% 29.83 in - NW 12.7 mph - N/A   Clear
11:50 PM 80.6 °F 81.5 °F 60.8 °F 51% 29.83 in - NW 11.5 mph - N/A   Clear